Fort Rucker / Ozark, AL

9:36 PM CDT on August 17, 2017 (GMT -0500)
Fort Rucker / Ozark

Weather History for KHEY - March, 2013

Change the Weather History Date:

Friday, March 8, 2013

  Actual Average (KOZR) Record (KOZR)
Temperature  
Mean Temperature 54 °F -  
Max Temperature 73 °F 65 °F 80 °F (2012)
Min Temperature 35 °F 43 °F 33 °F (2001)
Degree Days  
Heating Degree Days 11    
Growing Degree Days 4 (Base 50)    
Moisture  
Dew Point 31 °F    
Average Humidity 48    
Maximum Humidity 85    
Minimum Humidity 15    
Precipitation  
Precipitation 0.00 in - - ()
Sea Level Pressure  
Sea Level Pressure 30.20 in    
Wind  
Wind Speed 4 mph (North)    
Max Wind Speed 8 mph    
Max Gust Speed -    
Visibility 10 miles    
Events      
Averages and records for this station are not official NWS values.
T = Trace of Precipitation, MM = Missing Value Source: NWS Daily Summary

Daily Weather History Graph

Daily Weather History Graph

Search for Another Location

Airport or City:

Trip Planner

Search our weather history database for the weather conditions in past years. The results will help you decide how hot, cold, wet, or windy it might be!

Date:

Astronomy

Mar. 08, 2013 Rise Set
Actual Time 6:00 AM CST 5:46 PM CST
Civil Twilight 5:36 AM CST 6:10 PM CST
Nautical Twilight 5:08 AM CST 6:38 PM CST
Astronomical Twilight 4:40 AM CST 7:06 PM CST
Moon 3:34 AM CST (3/8) 2:49 PM CST (3/8)
Length of Visible Light 12h 33m
Length of Day
11h 45m
Waning Crescent, 11% of the Moon is Illuminated
Mar 8
Waning Crescent
Mar 11
New
Mar 19
First Quarter
Mar 27
Full
Apr 2
Last Quarter

Hourly Weather History & Observations

Time (CST) Temp. Windchill Dew Point Humidity Pressure Visibility Wind Dir Wind Speed Gust Speed Precip Events Conditions
12:53 AM 44.1 °F 40.8 °F 33.1 °F 65% 30.20 in 10.0 mi NNW 5.8 mph - N/A   Clear
1:53 AM 37.9 °F - 33.1 °F 83% 30.20 in 10.0 mi Calm Calm - N/A   Clear
2:53 AM 37.9 °F 35.5 °F 32.0 °F 79% 30.19 in 10.0 mi North 3.5 mph - N/A   Clear
3:53 AM 37.0 °F 33.3 °F 30.9 °F 79% 30.20 in 10.0 mi North 4.6 mph - N/A   Clear
4:53 AM 35.1 °F - 30.9 °F 85% 30.22 in 10.0 mi Calm Calm - N/A   Clear
5:53 AM 35.1 °F 31.0 °F 30.9 °F 85% 30.23 in 10.0 mi North 4.6 mph - N/A   Clear
6:53 AM 42.1 °F 39.2 °F 33.1 °F 70% 30.24 in 10.0 mi North 4.6 mph - N/A   Clear
7:53 AM 48.9 °F - 33.1 °F 54% 30.26 in 10.0 mi NNE 6.9 mph - N/A   Clear
8:53 AM 53.1 °F - 32.0 °F 45% 30.27 in 10.0 mi NNE 4.6 mph - N/A   Clear
9:53 AM 57.9 °F - 32.0 °F 37% 30.27 in 10.0 mi Calm Calm - N/A   Clear
10:53 AM 64.0 °F - 30.9 °F 29% 30.25 in 10.0 mi North 8.1 mph - N/A   Clear
11:53 AM 66.9 °F - 28.0 °F 23% 30.21 in 10.0 mi North 3.5 mph - N/A   Clear
12:53 PM 70.0 °F - 26.1 °F 19% 30.18 in 10.0 mi Calm Calm - N/A   Clear
1:53 PM 72.0 °F - 21.9 °F 15% 30.16 in 10.0 mi Calm Calm - N/A   Clear
2:53 PM 73.0 °F - 23.0 °F 15% 30.15 in 10.0 mi Variable 3.5 mph - N/A   Clear
3:53 PM 73.0 °F - 24.1 °F 16% 30.15 in 10.0 mi North 6.9 mph - N/A   Clear
4:53 PM 71.1 °F - 23.0 °F 16% 30.15 in 10.0 mi NW 4.6 mph - N/A   Clear
5:53 PM 62.1 °F - 30.9 °F 31% 30.17 in 10.0 mi North 3.5 mph - N/A   Clear
6:53 PM 57.0 °F - 33.1 °F 40% 30.19 in 10.0 mi East 5.8 mph - N/A   Clear
7:53 PM 59.0 °F - 30.0 °F 33% 30.18 in 10.0 mi NE 3.5 mph - N/A   Clear
8:53 PM 53.1 °F - 33.1 °F 47% 30.18 in 10.0 mi NNW 3.5 mph - N/A   Clear
9:53 PM 50.0 °F - 35.1 °F 57% 30.19 in 10.0 mi North 3.5 mph - N/A   Clear
10:53 PM 48.9 °F - 37.0 °F 64% 30.19 in 10.0 mi Calm Calm - N/A   Clear
11:53 PM 48.9 °F - 36.0 °F 61% 30.16 in 10.0 mi Calm Calm - N/A   Clear